Back to catalog

STARLINK-11296

AliveCommunicationsVLEO
NORAD 61699·PAYLOAD·🇺🇸 United States

Launched Oct 30, 2024 from Vandenberg Space Force Base

Loading…

Next Passes (next 24 hours)

TLE

FreshSource: CelesTrak SupGP

Epoch: Sep 14, 2026, 15:15 UTC

1 61699C 24195N   26257.63590278  .00026906  00000+0  22177-3 0  2575
2 61699  53.1573 174.4916 0001107 104.9059 277.2500 15.69680875    15

Track STARLINK-11296 in real time with AllMySat

Download on the App Store